KC3FDL Weather Reports


time (UTC)temp
C
wind
direction
speed
KPH
gust
KPH
rain 1hr
cm
rain 24hr
cm
rain mn
cm
humidity
%
barometer
mb
20260504201037 23 281 8.0 20.9 0.00 0.00 0.00 34 1009.8
20260504200036 23 289 8.0 19.3 0.00 0.00 0.00 34 1010.0
20260504195157 23 281 6.4 17.7 0.00 0.00 0.00 35 1010.2
20260504194036 23 278 6.4 19.3 0.00 0.00 0.00 35 1010.5
20260504193056 23 246 4.8 19.3 0.00 0.00 0.00 35 1010.7
20260504192016 23 282 6.4 19.3 0.00 0.00 0.00 35 1010.8
20260504191056 23 275 6.4 16.1 0.00 0.00 0.00 35 1011.0
20260504185036 22 276 6.4 24.1 0.00 0.00 0.00 36 1011.3
20260504184015 22 271 8.0 24.1 0.00 0.00 0.00 36 1011.3
20260504183036 22 271 8.0 22.5 0.00 0.00 0.00 36 1011.5
20260504182056 22 265 6.4 20.9 0.00 0.00 0.00 36 1011.6
20260504181015 22 270 6.4 20.9 0.00 0.00 0.00 36 1011.7
20260504180056 21 254 4.8 20.9 0.00 0.00 0.00 36 1011.7
20260504175016 21 293 8.0 22.5 0.00 0.00 0.00 36 1011.8
20260504174035 21 266 8.0 22.5 0.00 0.00 0.00 36 1011.9
20260504173115 21 244 3.2 17.7 0.00 0.00 0.00 36 1011.9
20260504172055 21 242 4.8 17.7 0.00 0.00 0.00 36 1012.2
20260504171015 21 301 3.2 19.3 0.00 0.00 0.00 38 1012.3
20260504151037 18 297 8.0 19.3 0.00 0.00 0.00 40 1013.8
20260504141018 16 239 4.8 16.1 0.00 0.00 0.00 45 1014.0
20260504081037 2 0.0 1.6 0.00 0.00 0.00 88 1015.1
20260504045016 3 17 1.6 3.2 0.00 0.00 0.00 83 1015.3
20260504044016 3 17 0.0 1.6 0.00 0.00 0.00 82 1015.3
20260504043036 3 17 0.0 3.2 0.00 0.00 0.00 82 1015.3
20260504042016 3 17 1.6 3.2 0.00 0.00 0.00 80 1015.2
20260504041016 4 23 0.0 3.2 0.00 0.00 0.00 79 1015.0
20260504040136 4 59 1.6 4.8 0.00 0.00 0.00 79 1014.8
20260504035036 4 121 1.6 4.8 0.00 0.00 0.00 78 1014.7
20260504034016 5 31 1.6 3.2 0.00 0.00 0.00 78 1014.9
20260504033036 5 0 1.6 3.2 0.00 0.00 0.00 76 1014.9
20260504032056 5 0 1.6 3.2 0.00 0.00 0.00 75 1014.8
20260504031036 5 0 0.0 3.2 0.00 0.00 0.00 74 1014.6
20260504030016 5 0 0.0 4.8 0.00 0.00 0.00 73 1014.6
20260504025056 6 354 1.6 4.8 0.00 0.00 0.00 72 1014.6
20260504024016 6 284 1.6 3.2 0.00 0.00 0.00 70 1014.6
20260504023036 6 284 0.0 3.2 0.00 0.00 0.00 69 1014.6
20260504022016 6 284 1.6 3.2 0.00 0.00 0.00 67 1014.6
20260504021036 7 281 1.6 3.2 0.00 0.00 0.00 66 1014.5
20260504020018 7 265 0.0 3.2 0.00 0.00 0.00 64 1014.5
20260504015016 8 312 0.0 3.2 0.00 0.00 0.00 62 1014.5
20260504014056 8 328 1.6 3.2 0.00 0.00 0.00 60 1014.4
20260504013016 8 328 1.6 3.2 0.00 0.00 0.00 57 1014.4
20260504012016 9 328 0.0 3.2 0.00 0.00 0.00 56 1014.3
20260504011036 10 332 0.0 3.2 0.00 0.00 0.00 53 1014.2
20260504010016 10 332 1.6 3.2 0.00 0.00 0.00 51 1014.2
20260504005016 11 329 0.0 3.2 0.00 0.00 0.00 47 1014.2
20260504004056 12 329 0.0 1.6 0.00 0.00 0.00 45 1014.1
20260504003016 12 329 0.0 1.6 0.00 0.00 0.00 43 1014.0
20260504002016 13 329 0.0 1.6 0.00 0.00 0.00 41 1013.9
20260504001036 13 329 0.0 1.6 0.00 0.00 0.00 39 1013.8
20260504000016 14 329 0.0 3.2 0.00 0.00 0.00 37 1013.7
20260503235016 14 330 1.6 6.4 0.00 0.00 0.00 36 1013.6
20260503234036 15 319 3.2 6.4 0.00 0.00 0.00 34 1013.5
20260503233036 15 346 3.2 14.5 0.00 0.00 0.00 35 1013.3
20260503232056 15 323 4.8 14.5 0.00 0.00 0.00 34 1013.2
20260503231116 15 349 3.2 12.9 0.00 0.00 0.00 34 1013.2
20260503230016 15 348 3.2 17.7 0.00 0.00 0.00 34 1013.2
20260503225016 15 340 6.4 17.7 0.00 0.00 0.00 33 1013.3
20260503224016 15 345 8.0 29.0 0.00 0.00 0.00 33 1013.3
20260503223056 15 343 9.7 29.0 0.00 0.00 0.00 33 1013.3
20260503222016 15 348 9.7 22.5 0.00 0.00 0.00 33 1013.4
20260503221036 15 344 8.0 20.9 0.00 0.00 0.00 33 1013.4
20260503220056 15 323 9.7 24.1 0.00 0.00 0.00 33 1013.5
20260503215056 16 345 9.7 24.1 0.00 0.00 0.00 32 1013.5
20260503214056 15 341 8.0 20.9 0.00 0.00 0.00 33 1013.4
20260503213016 15 343 9.7 24.1 0.00 0.00 0.00 32 1013.4
20260503212056 15 351 9.7 24.1 0.00 0.00 0.00 32 1013.3
20260503211036 15 350 8.0 20.9 0.00 0.00 0.00 33 1013.4
20260503210036 15 337 8.0 22.5 0.00 0.00 0.00 32 1013.3
20260503205016 15 346 8.0 24.1 0.00 0.00 0.00 32 1013.4
20260503204056 16 345 9.7 24.1 0.00 0.00 0.00 32 1013.5
20260503203036 16 330 8.0 19.3 0.00 0.00 0.00 32 1013.6
20260503202036 16 345 6.4 22.5 0.00 0.00 0.00 33 1013.7